OAL277 LIEO-LFMN

Flight info

Callsign OAL277
Flight time 0h 40m
Altitude 26000
Route OKIVA P980 DIKEL DCT OMEDA M622 LONSU
Aircraft A320/M-SDE3FGHIRWY/LB1

Departure

Time 2026-05-06 19:42
Airport Olbia Costa Smeralda Airport (LIEO)

Arrival

Time 2026-05-06 20:23
Airport Nice-Côte d'Azur Airport (LFMN)
Time Latitude Longitude Altitude Speed Heading
2026-05-06 18:51 40.90221 9.51619 36 ft 0 kts 325°
2026-05-06 19:31 40.90199 9.51638 33 ft 4 kts 323°
2026-05-06 19:32 40.90180 9.51661 34 ft 4 kts 287°
2026-05-06 19:32 40.90179 9.51677 35 ft 0 kts 236°
2026-05-06 19:36 40.90169 9.51658 34 ft 9 kts 234°
2026-05-06 19:36 40.90117 9.51560 34 ft 17 kts 235°
2026-05-06 19:36 40.90064 9.51489 35 ft 8 kts 181°
2026-05-06 19:36 40.89998 9.51521 32 ft 13 kts 167°
2026-05-06 19:37 40.89906 9.51450 32 ft 17 kts 233°
2026-05-06 19:37 40.89838 9.51320 34 ft 18 kts 235°
2026-05-06 19:37 40.89768 9.51178 35 ft 19 kts 234°
2026-05-06 19:37 40.89717 9.51085 36 ft 19 kts 235°
2026-05-06 19:38 40.89611 9.50878 36 ft 21 kts 236°
2026-05-06 19:38 40.89525 9.50716 36 ft 23 kts 235°
2026-05-06 19:38 40.89433 9.50539 36 ft 23 kts 236°
2026-05-06 19:38 40.89380 9.50456 37 ft 5 kts 210°
2026-05-06 19:39 40.89378 9.50455 37 ft 0 kts 207°
2026-05-06 19:40 40.89366 9.50447 37 ft 7 kts 205°
2026-05-06 19:40 40.89303 9.50446 33 ft 10 kts 154°
2026-05-06 19:40 40.89274 9.50529 34 ft 9 kts 99°
2026-05-06 19:40 40.89255 9.50586 32 ft 7 kts 94°
2026-05-06 19:41 40.89284 9.50656 28 ft 11 kts 59°
2026-05-06 19:41 40.89350 9.50781 25 ft 33 kts 54°
2026-05-06 19:41 40.89625 9.51307 31 ft 103 kts 55°
2026-05-06 19:41 40.90142 9.52294 28 ft 156 kts 55°
2026-05-06 19:42 40.90825 9.53566 411 ft 169 kts 54°
2026-05-06 19:42 40.91496 9.54816 1191 ft 165 kts 56°
2026-05-06 19:42 40.92144 9.56089 1755 ft 175 kts 57°
2026-05-06 19:42 40.92853 9.57511 2131 ft 194 kts 58°
2026-05-06 19:43 40.93636 9.59073 2477 ft 214 kts 56°
2026-05-06 19:43 40.94538 9.60762 2771 ft 239 kts 54°
2026-05-06 19:43 40.95563 9.62588 3444 ft 247 kts 54°
2026-05-06 19:43 40.96594 9.64430 4309 ft 252 kts 51°
2026-05-06 19:44 40.97977 9.65859 5102 ft 257 kts 22°
2026-05-06 19:44 40.99763 9.66280 5808 ft 267 kts 354°
2026-05-06 19:44 41.01519 9.65470 6387 ft 277 kts 325°
2026-05-06 19:44 41.03142 9.63993 7201 ft 281 kts 323°
2026-05-06 19:45 41.04758 9.62519 8077 ft 283 kts 323°
2026-05-06 19:45 41.06387 9.61042 8962 ft 285 kts 323°
2026-05-06 19:45 41.07970 9.59447 9813 ft 287 kts 314°
2026-05-06 19:45 41.09261 9.57416 10434 ft 296 kts 304°
2026-05-06 19:46 41.10519 9.55127 10664 ft 319 kts 304°
2026-05-06 19:46 41.11856 9.52663 11048 ft 335 kts 303°
2026-05-06 19:46 41.13231 9.50125 11708 ft 341 kts 303°
2026-05-06 19:46 41.14624 9.47560 12446 ft 345 kts 303°
2026-05-06 19:47 41.16034 9.44970 13176 ft 348 kts 303°
2026-05-06 19:47 41.17463 9.42350 13877 ft 352 kts 303°
2026-05-06 19:47 41.18901 9.39710 14517 ft 355 kts 303°
2026-05-06 19:47 41.20355 9.37035 15132 ft 359 kts 302°
2026-05-06 19:48 41.21821 9.34328 15762 ft 363 kts 302°
2026-05-06 19:48 41.23282 9.31581 16383 ft 366 kts 300°
2026-05-06 19:48 41.24694 9.28755 16993 ft 368 kts 298°
2026-05-06 19:48 41.26073 9.25878 17600 ft 371 kts 297°
2026-05-06 19:49 41.27450 9.22954 18217 ft 375 kts 297°
2026-05-06 19:49 41.28839 9.20010 18748 ft 377 kts 297°
2026-05-06 19:49 41.30275 9.17070 19285 ft 382 kts 302°
2026-05-06 19:49 41.32111 9.14460 19814 ft 392 kts 315°
2026-05-06 19:50 41.34416 9.12447 20333 ft 403 kts 329°
2026-05-06 19:50 41.37090 9.11192 20848 ft 413 kts 343°
2026-05-06 19:50 41.39980 9.10832 21346 ft 423 kts 357°
2026-05-06 19:50 41.42936 9.10942 21839 ft 427 kts 357°
2026-05-06 19:51 41.45913 9.11055 22326 ft 430 kts 357°
2026-05-06 19:51 41.48914 9.11160 22797 ft 432 kts 356°
2026-05-06 19:51 41.51905 9.10908 23246 ft 430 kts 346°
2026-05-06 19:51 41.54803 9.10005 23672 ft 426 kts 336°
2026-05-06 19:52 41.57526 9.08499 24046 ft 422 kts 326°
2026-05-06 19:52 41.60002 9.06442 24444 ft 418 kts 318°
2026-05-06 19:52 41.61604 9.04910 24709 ft 420 kts 318°
2026-05-06 19:52 41.63985 9.02637 25105 ft 422 kts 319°
2026-05-06 19:53 41.66383 9.00353 25484 ft 424 kts 318°
2026-05-06 19:53 41.68792 8.98064 25848 ft 426 kts 318°
2026-05-06 19:53 41.71213 8.95764 25961 ft 425 kts 318°
2026-05-06 19:53 41.73607 8.93487 25977 ft 420 kts 318°
2026-05-06 19:54 41.75978 8.91226 25977 ft 418 kts 318°
2026-05-06 19:54 41.78349 8.88961 25973 ft 418 kts 318°
2026-05-06 19:54 41.80710 8.86701 25974 ft 417 kts 318°
2026-05-06 19:54 41.83072 8.84438 25973 ft 417 kts 318°
2026-05-06 19:55 41.85436 8.82172 25979 ft 418 kts 318°
2026-05-06 19:55 41.87798 8.79903 25977 ft 418 kts 318°
2026-05-06 19:55 41.90163 8.77628 25977 ft 418 kts 318°
2026-05-06 19:55 41.92521 8.75355 25979 ft 418 kts 318°
2026-05-06 19:56 41.94886 8.73079 25980 ft 418 kts 318°
2026-05-06 19:56 41.97248 8.70802 25976 ft 418 kts 318°
2026-05-06 19:56 41.99608 8.68527 25975 ft 418 kts 318°
2026-05-06 19:56 42.01974 8.66248 25976 ft 418 kts 318°
2026-05-06 19:57 42.04340 8.63967 25980 ft 418 kts 317°
2026-05-06 19:57 42.06701 8.61683 25982 ft 418 kts 317°
2026-05-06 19:57 42.09062 8.59392 25984 ft 418 kts 317°
2026-05-06 19:57 42.11420 8.57100 25982 ft 418 kts 317°
2026-05-06 19:58 42.13810 8.54780 25982 ft 418 kts 317°
2026-05-06 19:58 42.16167 8.52492 25981 ft 418 kts 317°
2026-05-06 19:58 42.18528 8.50197 25978 ft 418 kts 317°
2026-05-06 19:58 42.20884 8.47908 25979 ft 418 kts 317°
2026-05-06 19:59 42.23243 8.45616 25981 ft 418 kts 317°
2026-05-06 19:59 42.25604 8.43320 25978 ft 418 kts 317°
2026-05-06 19:59 42.27959 8.41024 25976 ft 418 kts 317°
2026-05-06 19:59 42.30313 8.38728 25975 ft 418 kts 317°
2026-05-06 20:00 42.32678 8.36441 25978 ft 420 kts 320°
2026-05-06 20:00 42.35215 8.34440 25780 ft 422 kts 324°
2026-05-06 20:00 42.37780 8.32518 25168 ft 420 kts 324°
2026-05-06 20:00 42.40329 8.30618 24631 ft 417 kts 324°
2026-05-06 20:01 42.42856 8.28734 24112 ft 413 kts 324°
2026-05-06 20:01 42.45355 8.26861 23606 ft 409 kts 324°
2026-05-06 20:01 42.47832 8.25001 23061 ft 405 kts 324°
2026-05-06 20:01 42.50274 8.23164 22590 ft 399 kts 324°
2026-05-06 20:02 42.52688 8.21349 22125 ft 393 kts 324°
2026-05-06 20:02 42.55064 8.19559 21671 ft 389 kts 324°
2026-05-06 20:02 42.57418 8.17786 21209 ft 385 kts 324°
2026-05-06 20:02 42.59751 8.16027 20741 ft 381 kts 324°
2026-05-06 20:03 42.62058 8.14282 20283 ft 378 kts 324°
2026-05-06 20:03 42.64345 8.12547 19807 ft 376 kts 324°
2026-05-06 20:03 42.66628 8.10813 19324 ft 374 kts 324°
2026-05-06 20:03 42.68895 8.09090 18848 ft 373 kts 324°
2026-05-06 20:04 42.71153 8.07371 18363 ft 372 kts 324°
2026-05-06 20:04 42.73403 8.05657 17829 ft 370 kts 325°
2026-05-06 20:04 42.75692 8.04051 17349 ft 372 kts 332°
2026-05-06 20:04 42.78190 8.03074 16868 ft 377 kts 346°
2026-05-06 20:05 42.80805 8.02889 16589 ft 378 kts 359°
2026-05-06 20:05 42.83427 8.03258 16287 ft 377 kts
2026-05-06 20:05 42.86029 8.03650 15982 ft 375 kts
2026-05-06 20:05 42.88611 8.04037 15681 ft 372 kts
2026-05-06 20:06 42.91177 8.04420 15387 ft 370 kts
2026-05-06 20:06 42.93729 8.04800 15091 ft 368 kts
2026-05-06 20:06 42.96264 8.05177 14798 ft 366 kts
2026-05-06 20:06 42.98787 8.05551 14503 ft 363 kts
2026-05-06 20:07 43.01324 8.05930 14202 ft 361 kts
2026-05-06 20:07 43.03811 8.06303 13914 ft 359 kts
2026-05-06 20:07 43.06297 8.06677 13610 ft 358 kts
2026-05-06 20:07 43.08764 8.07052 13311 ft 356 kts
2026-05-06 20:08 43.11222 8.07423 13026 ft 354 kts
2026-05-06 20:08 43.13668 8.07787 12739 ft 353 kts
2026-05-06 20:08 43.16099 8.08149 12456 ft 351 kts
2026-05-06 20:08 43.18525 8.08512 12170 ft 350 kts
2026-05-06 20:09 43.20937 8.08876 11892 ft 348 kts
2026-05-06 20:09 43.23337 8.09238 11615 ft 346 kts
2026-05-06 20:09 43.25728 8.09540 11330 ft 342 kts 357°
2026-05-06 20:09 43.28047 8.09106 11049 ft 334 kts 339°
2026-05-06 20:10 43.30123 8.07792 10791 ft 326 kts 322°
2026-05-06 20:10 43.31797 8.05769 10517 ft 318 kts 306°
2026-05-06 20:10 43.32988 8.03267 10296 ft 307 kts 296°
2026-05-06 20:10 43.34018 8.00759 10176 ft 295 kts 296°
2026-05-06 20:11 43.35014 7.98351 10108 ft 288 kts 296°
2026-05-06 20:11 43.36004 7.95955 9902 ft 287 kts 296°
2026-05-06 20:11 43.36987 7.93578 9750 ft 286 kts 296°
2026-05-06 20:11 43.37967 7.91199 9619 ft 285 kts 296°
2026-05-06 20:12 43.38944 7.88835 9485 ft 285 kts 296°
2026-05-06 20:12 43.39922 7.86468 9350 ft 284 kts 296°
2026-05-06 20:12 43.40893 7.84113 9208 ft 283 kts 296°
2026-05-06 20:12 43.41778 7.81714 8853 ft 279 kts 288°
2026-05-06 20:13 43.42437 7.79213 8471 ft 278 kts 287°
2026-05-06 20:13 43.43091 7.76731 8084 ft 276 kts 288°
2026-05-06 20:13 43.43746 7.74250 7699 ft 274 kts 287°
2026-05-06 20:13 43.44397 7.71790 7326 ft 273 kts 287°
2026-05-06 20:14 43.45043 7.69338 6954 ft 272 kts 288°
2026-05-06 20:14 43.45687 7.66905 6580 ft 270 kts 287°
2026-05-06 20:14 43.46335 7.64454 6207 ft 267 kts 288°
2026-05-06 20:14 43.46958 7.62091 5822 ft 265 kts 287°
2026-05-06 20:15 43.47584 7.59714 5426 ft 255 kts 287°
2026-05-06 20:15 43.48179 7.57466 5047 ft 248 kts 287°
2026-05-06 20:15 43.48758 7.55274 4675 ft 238 kts 286°
2026-05-06 20:15 43.49422 7.53240 4285 ft 231 kts 298°
2026-05-06 20:16 43.50500 7.51645 4007 ft 227 kts 319°
2026-05-06 20:16 43.51915 7.50626 3998 ft 234 kts 339°
2026-05-06 20:16 43.53530 7.50170 3990 ft 238 kts 346°
2026-05-06 20:16 43.55172 7.49779 3675 ft 239 kts 346°
2026-05-06 20:17 43.56793 7.49357 3361 ft 235 kts 339°
2026-05-06 20:17 43.58220 7.48361 3027 ft 227 kts 317°
2026-05-06 20:17 43.59248 7.46771 2696 ft 218 kts 301°
2026-05-06 20:17 43.60097 7.45093 2370 ft 209 kts 302°
2026-05-06 20:18 43.60919 7.43482 2046 ft 202 kts 302°
2026-05-06 20:18 43.61716 7.41922 1731 ft 196 kts 303°
2026-05-06 20:18 43.62485 7.40419 1540 ft 188 kts 302°
2026-05-06 20:18 43.63217 7.38991 1428 ft 177 kts 301°
2026-05-06 20:19 43.63906 7.37649 1342 ft 164 kts 301°
2026-05-06 20:19 43.64534 7.36423 1303 ft 150 kts 301°
2026-05-06 20:19 43.65128 7.35261 1308 ft 146 kts 301°
2026-05-06 20:19 43.65713 7.34108 1305 ft 147 kts 301°
2026-05-06 20:20 43.66293 7.32963 1299 ft 145 kts 301°
2026-05-06 20:20 43.66870 7.31824 1133 ft 144 kts 301°
2026-05-06 20:20 43.67447 7.30680 950 ft 146 kts 301°
2026-05-06 20:20 43.68025 7.29532 760 ft 145 kts 301°
2026-05-06 20:21 43.68542 7.28350 600 ft 142 kts 290°
2026-05-06 20:21 43.68802 7.27043 461 ft 142 kts 273°
2026-05-06 20:21 43.68723 7.25703 357 ft 140 kts 249°
2026-05-06 20:21 43.68212 7.24591 269 ft 137 kts 226°
2026-05-06 20:22 43.67521 7.23676 210 ft 138 kts 226°
2026-05-06 20:22 43.66863 7.22719 84 ft 137 kts 225°
2026-05-06 20:22 43.66188 7.21801 27 ft 126 kts 225°
2026-05-06 20:22 43.65717 7.21143 23 ft 55 kts 225°
2026-05-06 20:23 43.65561 7.20930 23 ft 27 kts 225°
2026-05-06 20:23 43.65477 7.20792 22 ft 12 kts 263°
2026-05-06 20:23 43.65528 7.20695 22 ft 14 kts 337°
2026-05-06 20:23 43.65616 7.20692 22 ft 12 kts 27°
2026-05-06 20:24 43.65675 7.20764 22 ft 11 kts 43°
2026-05-06 20:24 43.65727 7.20833 22 ft 10 kts 46°
2026-05-06 20:24 43.65781 7.20870 22 ft 8 kts 360°
2026-05-06 20:24 43.65835 7.20859 22 ft 7 kts 351°
2026-05-06 20:25 43.65908 7.20842 22 ft 13 kts 351°
2026-05-06 20:25 43.65996 7.20822 22 ft 12 kts 350°
2026-05-06 20:25 43.66075 7.20803 22 ft 11 kts 350°
2026-05-06 20:25 43.66122 7.20792 24 ft 10 kts 350°
2026-05-06 20:26 43.66185 7.20776 23 ft 9 kts 350°
2026-05-06 20:26 43.66249 7.20761 22 ft 10 kts 351°
2026-05-06 20:26 43.66304 7.20802 22 ft 11 kts 63°
2026-05-06 20:26 43.66321 7.20927 22 ft 13 kts 86°
2026-05-06 20:27 43.66317 7.21045 22 ft 12 kts 86°
2026-05-06 20:27 43.66326 7.21152 22 ft 10 kts 81°
2026-05-06 20:27 43.66351 7.21197 22 ft 5 kts 19°
2026-05-06 20:27 43.66384 7.21209 22 ft 4 kts 14°
2026-05-06 20:28 43.66405 7.21217 22 ft 2 kts 17°
2026-05-06 20:28 43.66412 7.21221 22 ft 0 kts 17°